| time (UTC) | temp F | wind direction | speed MPH | gust MPH | rain 1hr in | rain 24hr in | rain mn in | humidity % | barometer mb |
| 20260906044501 | 78 | 80 | 0.0 | 0.0 | 0.00 | 0.00 | 0.00 | 95 | 990.1 |
| 20260906043005 | 78 | 80 | 0.0 | 0.0 | 0.00 | 0.00 | 0.00 | 95 | 990.2 |
| 20260906041501 | 78 | 80 | 0.0 | 4.0 | 0.00 | 0.00 | 0.00 | 96 | 990.1 |
| 20260906040004 | 78 | 75 | 4.0 | 10.0 | 0.00 | 0.00 | 0.00 | 94 | 990.2 |
| 20260906034501 | 79 | 131 | 0.0 | 0.0 | 0.00 | 0.00 | 0.00 | 93 | 990.0 |
| 20260906033003 | 79 | 130 | 0.0 | 0.0 | 0.00 | 0.00 | 0.00 | 92 | 990.0 |
| 20260906031505 | 80 | 130 | 0.0 | 0.0 | 0.00 | 0.00 | 0.00 | 92 | 990.0 |
| 20260906030004 | 80 | 130 | 0.0 | 0.0 | 0.00 | 0.00 | 0.00 | 91 | 989.8 |
| 20260906024501 | 80 | 130 | 0.0 | 1.0 | 0.00 | 0.00 | 0.00 | 90 | 989.8 |
| 20260906023001 | 81 | 131 | 0.0 | 0.0 | 0.00 | 0.00 | 0.00 | 89 | 989.5 |
| 20260906021503 | 82 | 130 | 0.0 | 0.0 | 0.00 | 0.00 | 0.00 | 87 | 989.2 |
| 20260906020004 | 82 | 130 | 0.0 | 0.0 | 0.00 | 0.00 | 0.00 | 86 | 989.0 |
| 20260906014501 | 83 | 131 | 0.0 | 0.0 | 0.00 | 0.00 | 0.00 | 85 | 989.2 |
| 20260906013001 | 83 | 130 | 0.0 | 0.0 | 0.00 | 0.00 | 0.00 | 84 | 989.1 |
| 20260906011501 | 84 | 130 | 0.0 | 0.0 | 0.00 | 0.00 | 0.00 | 82 | 989.0 |
| 20260906010003 | 85 | 130 | 0.0 | 0.0 | 0.00 | 0.00 | 0.00 | 80 | 988.7 |
| 20260906004501 | 86 | 131 | 0.0 | 0.0 | 0.00 | 0.00 | 0.00 | 78 | 988.6 |
| 20260906003001 | 87 | 131 | 0.0 | 0.0 | 0.00 | 0.00 | 0.00 | 73 | 988.5 |
| 20260906001500 | 89 | 131 | 0.0 | 0.0 | 0.00 | 0.00 | 0.00 | 71 | 988.7 |
| 20260906000004 | 90 | 131 | 0.0 | 0.0 | 0.00 | 0.00 | 0.00 | 70 | 988.9 |
| 20260905234501 | 91 | 131 | 0.0 | 0.0 | 0.00 | 0.00 | 0.00 | 67 | 988.7 |
| 20260905233006 | 93 | 130 | 0.0 | 0.0 | 0.00 | 0.00 | 0.00 | 64 | 989.0 |
| 20260905231501 | 94 | 130 | 0.0 | 0.0 | 0.00 | 0.00 | 0.00 | 61 | 988.7 |
| 20260905230003 | 95 | 131 | 0.0 | 1.0 | 0.00 | 0.00 | 0.00 | 60 | 988.7 |
| 20260905224501 | 96 | 79 | 1.0 | 5.0 | 0.00 | 0.00 | 0.00 | 56 | 988.7 |
| 20260905223001 | 97 | 11 | 1.0 | 6.0 | 0.00 | 0.00 | 0.00 | 54 | 988.9 |
| 20260905221501 | 97 | 80 | 3.0 | 8.0 | 0.00 | 0.00 | 0.00 | 53 | 988.9 |
| 20260905220003 | 98 | 292 | 1.0 | 6.0 | 0.00 | 0.00 | 0.00 | 52 | 988.9 |
| 20260905214501 | 98 | 62 | 1.0 | 5.0 | 0.00 | 0.00 | 0.00 | 53 | 988.9 |
| 20260905213001 | 98 | 359 | 3.0 | 5.0 | 0.00 | 0.00 | 0.00 | 55 | 989.0 |
| 20260905211503 | 99 | 224 | 0.0 | 4.0 | 0.00 | 0.00 | 0.00 | 51 | 989.0 |
| 20260905210003 | 99 | 231 | 2.0 | 4.0 | 0.00 | 0.00 | 0.00 | 51 | 989.1 |
| 20260905204504 | 98 | 27 | 2.0 | 5.0 | 0.00 | 0.00 | 0.00 | 54 | 989.3 |
| 20260905203001 | 99 | 300 | 3.0 | 11.0 | 0.00 | 0.00 | 0.00 | 51 | 989.5 |
| 20260905201501 | 98 | 305 | 0.0 | 0.0 | 0.00 | 0.00 | 0.00 | 53 | 989.6 |
| 20260905200013 | 98 | 8 | 0.0 | 0.0 | 0.00 | 0.00 | 0.00 | 56 | 989.9 |
| 20260905194501 | 98 | 8 | 0.0 | 0.0 | 0.00 | 0.00 | 0.00 | 56 | 990.3 |
| 20260905193002 | 98 | 55 | 0.0 | 0.0 | 0.00 | 0.00 | 0.00 | 55 | 990.5 |
| 20260905191501 | 97 | 325 | 0.0 | 0.0 | 0.00 | 0.00 | 0.00 | 54 | 990.7 |
| 20260905190104 | 97 | 73 | 0.0 | 0.0 | 0.00 | 0.00 | 0.00 | 56 | 990.9 |
| 20260905190004 | 97 | 143 | 0.0 | 0.0 | 0.00 | 0.00 | 0.00 | 57 | 990.9 |
| 20260905184501 | 96 | 68 | 0.0 | 0.0 | 0.00 | 0.00 | 0.00 | 58 | 991.0 |
| 20260905183001 | 97 | 199 | 0.0 | 0.0 | 0.00 | 0.00 | 0.00 | 56 | 991.2 |
| 20260905181500 | 97 | 51 | 0.0 | 0.0 | 0.00 | 0.00 | 0.00 | 55 | 991.3 |
| 20260905180006 | 96 | 95 | 0.0 | 0.0 | 0.00 | 0.00 | 0.00 | 55 | 991.3 |
| 20260905174501 | 96 | 4 | 0.0 | 0.0 | 0.00 | 0.00 | 0.00 | 54 | 991.5 |
| 20260905173001 | 96 | 18 | 0.0 | 0.0 | 0.00 | 0.00 | 0.00 | 59 | 991.6 |
| 20260905171501 | 96 | 307 | 0.0 | 0.0 | 0.00 | 0.00 | 0.00 | 58 | 991.7 |
| 20260905170001 | 95 | 235 | 0.0 | 0.0 | 0.00 | 0.00 | 0.00 | 60 | 991.7 |
| 20260905164607 | 94 | 342 | 0.0 | 0.0 | 0.00 | 0.00 | 0.00 | 59 | 992.1 |
| 20260905163112 | 94 | 85 | 0.0 | 0.0 | 0.00 | 0.00 | 0.00 | 61 | 992.4 |
| 20260905161614 | 93 | 111 | 0.0 | 0.0 | 0.00 | 0.00 | 0.00 | 62 | 992.4 |
| 20260905160100 | 93 | 64 | 0.0 | 0.0 | 0.00 | 0.00 | 0.00 | 64 | 992.6 |
| 20260905160003 | 93 | 44 | 0.0 | 0.0 | 0.00 | 0.00 | 0.00 | 64 | 992.6 |
| 20260905154611 | 92 | 18 | 0.0 | 0.0 | 0.00 | 0.00 | 0.00 | 66 | 992.6 |
| 20260905153100 | 91 | 317 | 0.0 | 0.0 | 0.00 | 0.00 | 0.00 | 70 | 992.9 |
| 20260905151600 | 90 | 241 | 0.0 | 0.0 | 0.00 | 0.00 | 0.00 | 73 | 992.7 |
| 20260905150104 | 89 | 63 | 0.0 | 0.0 | 0.00 | 0.00 | 0.00 | 74 | 992.6 |
| 20260905150002 | 89 | 71 | 0.0 | 0.0 | 0.00 | 0.00 | 0.00 | 74 | 992.6 |
| 20260905144600 | 88 | 12 | 0.0 | 0.0 | 0.00 | 0.00 | 0.00 | 75 | 992.8 |
| 20260905143104 | 88 | 31 | 0.0 | 0.0 | 0.00 | 0.00 | 0.00 | 73 | 992.7 |
| 20260905141605 | 87 | 53 | 0.0 | 0.0 | 0.00 | 0.00 | 0.00 | 76 | 992.7 |
| 20260905140100 | 85 | 66 | 0.0 | 0.0 | 0.00 | 0.00 | 0.00 | 79 | 992.8 |
| 20260905140002 | 85 | 77 | 0.0 | 0.0 | 0.00 | 0.00 | 0.00 | 80 | 992.8 |
| 20260905134600 | 85 | 95 | 0.0 | 0.0 | 0.00 | 0.00 | 0.00 | 81 | 992.6 |
| 20260905133105 | 81 | 22 | 0.0 | 0.0 | 0.00 | 0.00 | 0.00 | 88 | 992.7 |
| 20260905131601 | 79 | 63 | 0.0 | 0.0 | 0.00 | 0.00 | 0.00 | 91 | 992.7 |
| 20260905130059 | 77 | 63 | 0.0 | 0.0 | 0.00 | 0.00 | 0.00 | 95 | 992.8 |
| 20260905130002 | 77 | 63 | 0.0 | 0.0 | 0.00 | 0.00 | 0.00 | 95 | 992.8 |
| 20260905124600 | 75 | 63 | 0.0 | 0.0 | 0.00 | 0.00 | 0.00 | 97 | 993.0 |
| 20260905123109 | 73 | 63 | 0.0 | 0.0 | 0.00 | 0.00 | 0.00 | 100 | 993.0 |
| 20260905121559 | 72 | 63 | 0.0 | 0.0 | 0.00 | 0.00 | 0.00 | 100 | 992.8 |
| 20260905120101 | 71 | 63 | 0.0 | 0.0 | 0.00 | 0.00 | 0.00 | 100 | 992.6 |
| 20260905120003 | 71 | 63 | 0.0 | 0.0 | 0.00 | 0.00 | 0.00 | 100 | 992.6 |
| 20260905114603 | 71 | 63 | 0.0 | 0.0 | 0.00 | 0.00 | 0.00 | 100 | 992.4 |
| 20260905113059 | 71 | 63 | 0.0 | 0.0 | 0.00 | 0.00 | 0.00 | 99 | 992.1 |
| 20260905111559 | 71 | 63 | 0.0 | 0.0 | 0.00 | 0.00 | 0.00 | 99 | 992.1 |
| 20260905110100 | 71 | 63 | 0.0 | 0.0 | 0.00 | 0.00 | 0.00 | 99 | 992.0 |
| 20260905110002 | 71 | 63 | 0.0 | 0.0 | 0.00 | 0.00 | 0.00 | 99 | 992.0 |
| 20260905104600 | 71 | 63 | 0.0 | 0.0 | 0.00 | 0.00 | 0.00 | 99 | 991.9 |
| 20260905103104 | 72 | 63 | 0.0 | 0.0 | 0.00 | 0.00 | 0.00 | 99 | 991.8 |
| 20260905101606 | 72 | 63 | 0.0 | 0.0 | 0.00 | 0.00 | 0.00 | 99 | 991.6 |
| 20260905100122 | 72 | 63 | 0.0 | 0.0 | 0.00 | 0.00 | 0.00 | 99 | 991.4 |
| 20260905100002 | 72 | 63 | 0.0 | 0.0 | 0.00 | 0.00 | 0.00 | 99 | 991.4 |
| 20260905094659 | 72 | 63 | 0.0 | 0.0 | 0.00 | 0.00 | 0.00 | 99 | 991.5 |
| 20260905093100 | 72 | 63 | 0.0 | 0.0 | 0.00 | 0.00 | 0.00 | 99 | 991.3 |
| 20260905091612 | 72 | 63 | 0.0 | 0.0 | 0.00 | 0.00 | 0.00 | 99 | 991.1 |
| 20260905090002 | 72 | 63 | 0.0 | 0.0 | 0.00 | 0.00 | 0.00 | 99 | 991.1 |
| 20260905084601 | 72 | 63 | 0.0 | 0.0 | 0.00 | 0.00 | 0.00 | 99 | 991.1 |
| 20260905083119 | 73 | 63 | 0.0 | 0.0 | 0.00 | 0.00 | 0.00 | 99 | 991.0 |
| 20260905081608 | 73 | 63 | 0.0 | 0.0 | 0.00 | 0.00 | 0.00 | 99 | 991.1 |
| 20260905080100 | 73 | 63 | 0.0 | 0.0 | 0.00 | 0.00 | 0.00 | 99 | 991.1 |
| 20260905080002 | 73 | 63 | 0.0 | 0.0 | 0.00 | 0.00 | 0.00 | 99 | 991.1 |
| 20260905074559 | 73 | 63 | 0.0 | 0.0 | 0.00 | 0.00 | 0.00 | 98 | 991.2 |
| 20260905073100 | 73 | 63 | 0.0 | 0.0 | 0.00 | 0.00 | 0.00 | 98 | 991.2 |
| 20260905071610 | 73 | 63 | 0.0 | 0.0 | 0.00 | 0.00 | 0.00 | 98 | 991.2 |
| 20260905070101 | 74 | 63 | 0.0 | 0.0 | 0.00 | 0.00 | 0.00 | 98 | 991.4 |
| 20260905070002 | 74 | 63 | 0.0 | 0.0 | 0.00 | 0.00 | 0.00 | 98 | 991.4 |
| 20260905064617 | 74 | 63 | 0.0 | 0.0 | 0.00 | 0.00 | 0.00 | 98 | 991.5 |
| 20260905063100 | 74 | 63 | 0.0 | 0.0 | 0.00 | 0.00 | 0.00 | 98 | 991.7 |
| 20260905061606 | 74 | 63 | 0.0 | 0.0 | 0.00 | 0.00 | 0.00 | 98 | 991.7 |
| 20260905060100 | 74 | 63 | 0.0 | 2.0 | 0.00 | 0.00 | 0.00 | 98 | 991.8 |
| 20260905060004 | 74 | 63 | 0.0 | 2.0 | 0.00 | 0.00 | 0.00 | 98 | 991.8 |
| 20260905054503 | 74 | 63 | 0.0 | 0.0 | 0.00 | 0.00 | 0.00 | 98 | 991.8 |
| 20260905053002 | 74 | 63 | 0.0 | 0.0 | 0.00 | 0.00 | 0.00 | 97 | 991.9 |
| 20260905051503 | 74 | 63 | 0.0 | 0.0 | 0.00 | 0.00 | 0.00 | 97 | 991.9 |
| 20260905050006 | 75 | 63 | 0.0 | 1.0 | 0.00 | 0.00 | 0.00 | 97 | 991.8 |